Time,TemperatureF,DewpointF,PressureIn,WindDirection,WindDirectionDegrees,WindSpeedMPH,WindSpeedGustMPH,Humidity,HourlyPrecipIn,Conditions,Clouds,dailyrainin,SolarRadiationWatts/m^2,SoftwareType,DateUTC
2013-10-05 00:02:00,27.0,27.0,-100.00,SSW,201,1.0,5.0,99,0.00,,,0.33,0.000000,,2013-10-05 06:02:00,
2013-10-05 00:43:00,26.0,26.0,-100.00,SE,126,1.0,5.0,100,0.00,,,0.33,0.000000,,2013-10-05 06:43:00,
2013-10-05 00:52:00,26.0,26.0,-100.00,SE,126,1.0,5.0,100,0.00,,,0.33,0.000000,,2013-10-05 06:52:00,
2013-10-05 01:02:00,26.0,26.0,-100.00,SE,126,1.0,5.0,100,0.00,,,0.33,0.000000,,2013-10-05 07:02:00,
2013-10-05 01:42:00,25.0,23.0,-100.00,ENE,67,1.0,7.0,91,0.00,,,-99.99,0.000000,,2013-10-05 07:42:00,
2013-10-05 01:52:00,25.0,23.0,-100.00,ENE,67,1.0,7.0,91,0.00,,,-99.99,0.000000,,2013-10-05 07:52:00,
2013-10-05 02:02:00,25.0,23.0,-100.00,ENE,67,1.0,7.0,91,0.00,,,-99.99,0.000000,,2013-10-05 08:02:00,
2013-10-05 02:23:00,23.0,21.0,-100.00,NNE,28,1.0,8.0,93,0.00,,,0.32,0.000000,,2013-10-05 08:23:00,
2013-10-05 02:32:00,23.0,21.0,-100.00,NNE,28,1.0,8.0,93,0.00,,,0.32,0.000000,,2013-10-05 08:32:00,
2013-10-05 02:42:00,23.0,21.0,-100.00,NNE,28,1.0,8.0,93,0.00,,,0.32,0.000000,,2013-10-05 08:42:00,
2013-10-05 02:52:00,23.0,21.0,-100.00,NNE,28,1.0,8.0,93,0.00,,,0.32,0.000000,,2013-10-05 08:52:00,
2013-10-05 03:02:00,23.0,21.0,-100.00,NNE,28,1.0,8.0,93,0.00,,,0.32,0.000000,,2013-10-05 09:02:00,
2013-10-05 03:03:00,23.0,23.0,-100.00,ESE,120,1.0,5.0,98,0.00,,,0.32,0.000000,,2013-10-05 09:03:00,
2013-10-05 03:43:00,23.0,23.0,-100.00,ESE,120,1.0,5.0,98,0.00,,,0.32,0.000000,,2013-10-05 09:43:00,
2013-10-05 03:54:00,23.0,23.0,-100.00,ESE,120,1.0,5.0,98,0.00,,,0.32,0.000000,,2013-10-05 09:54:00,
2013-10-05 04:43:00,21.0,20.0,-100.00,ESE,114,1.0,4.0,97,0.00,,,0.32,0.000000,,2013-10-05 10:43:00,
2013-10-05 04:53:00,21.0,20.0,-100.00,ESE,114,1.0,4.0,97,0.00,,,0.32,0.000000,,2013-10-05 10:53:00,
2013-10-05 05:02:00,21.0,20.0,-100.00,ESE,114,1.0,4.0,97,0.00,,,0.32,0.000000,,2013-10-05 11:02:00,
2013-10-05 05:43:00,21.0,20.0,-100.00,SE,141,1.0,5.0,96,0.00,,,0.32,0.000000,,2013-10-05 11:43:00,
2013-10-05 05:52:00,21.0,20.0,-100.00,SE,141,1.0,5.0,96,0.00,,,0.32,0.000000,,2013-10-05 11:52:00,
2013-10-05 06:01:00,21.0,20.0,-100.00,SE,141,1.0,5.0,96,0.00,,,0.32,0.000000,,2013-10-05 12:01:00,
2013-10-05 06:42:00,21.0,21.0,-100.00,SE,138,2.0,5.0,98,0.00,,,0.32,0.000000,,2013-10-05 12:42:00,
2013-10-05 06:53:00,21.0,21.0,-100.00,SE,138,2.0,5.0,98,0.00,,,0.32,0.000000,,2013-10-05 12:53:00,
2013-10-05 07:01:00,21.0,21.0,-100.00,SE,138,2.0,5.0,98,0.00,,,0.32,0.000000,,2013-10-05 13:01:00,
2013-10-05 07:22:00,21.0,20.0,-100.00,SSE,162,2.0,8.0,94,0.00,,,0.32,0.000000,,2013-10-05 13:22:00,
2013-10-05 07:32:00,21.0,20.0,-100.00,SSE,162,2.0,8.0,94,0.00,,,0.32,0.000000,,2013-10-05 13:32:00,
2013-10-05 07:42:00,21.0,20.0,-100.00,SSE,162,2.0,8.0,94,0.00,,,0.32,0.000000,,2013-10-05 13:42:00,
2013-10-05 07:52:00,21.0,20.0,-100.00,SSE,162,2.0,8.0,94,0.00,,,0.32,0.000000,,2013-10-05 13:52:00,
2013-10-05 08:02:00,21.0,20.0,-100.00,SSE,162,2.0,8.0,94,0.00,,,0.32,0.000000,,2013-10-05 14:02:00,
2013-10-05 08:22:00,21.0,20.0,-100.00,SSE,153,1.0,6.0,95,-99.99,,,0.32,4.000000,,2013-10-05 14:22:00,
2013-10-05 08:32:00,21.0,20.0,-100.00,SSE,153,1.0,6.0,95,-99.99,,,0.32,4.000000,,2013-10-05 14:32:00,
2013-10-05 08:42:00,21.0,20.0,-100.00,SSE,153,1.0,6.0,95,-99.99,,,0.32,4.000000,,2013-10-05 14:42:00,
2013-10-05 08:52:00,21.0,20.0,-100.00,SSE,153,1.0,6.0,95,-99.99,,,0.32,4.000000,,2013-10-05 14:52:00,
2013-10-05 09:02:00,21.0,20.0,-100.00,SSE,153,1.0,6.0,95,-99.99,,,0.32,4.000000,,2013-10-05 15:02:00,
2013-10-05 13:42:00,46.0,26.0,-100.00,WSW,245,2.0,9.0,45,-99.99,,,-99.99,672.000000,,2013-10-05 19:42:00,
2013-10-05 13:52:00,46.0,26.0,-100.00,WSW,245,2.0,9.0,45,-99.99,,,-99.99,672.000000,,2013-10-05 19:52:00,
2013-10-05 14:02:00,46.0,26.0,-100.00,WSW,245,2.0,9.0,45,-99.99,,,-99.99,672.000000,,2013-10-05 20:02:00,
2013-10-05 14:22:00,45.0,27.0,-100.00,WSW,238,2.0,9.0,48,0.03,,,0.32,626.000000,,2013-10-05 20:22:00,
2013-10-05 14:32:00,45.0,27.0,-100.00,WSW,238,2.0,9.0,48,0.03,,,0.32,626.000000,,2013-10-05 20:32:00,
2013-10-05 14:42:00,45.0,27.0,-100.00,WSW,238,2.0,9.0,48,0.03,,,0.32,626.000000,,2013-10-05 20:42:00,
2013-10-05 14:52:00,45.0,27.0,-100.00,WSW,238,2.0,9.0,48,0.03,,,0.32,626.000000,,2013-10-05 20:52:00,
2013-10-05 15:01:00,45.0,27.0,-100.00,WSW,238,2.0,9.0,48,0.03,,,0.32,626.000000,,2013-10-05 21:01:00,
2013-10-05 15:03:00,47.0,28.0,-100.00,East,90,2.0,10.0,48,0.03,,,0.29,509.000000,,2013-10-05 21:03:00,
2013-10-05 15:44:00,47.0,28.0,-100.00,East,90,2.0,10.0,48,0.03,,,0.29,509.000000,,2013-10-05 21:44:00,
2013-10-05 15:54:00,47.0,28.0,-100.00,East,90,2.0,10.0,48,0.03,,,0.29,509.000000,,2013-10-05 21:54:00,
2013-10-05 16:42:00,50.0,28.0,-100.00,SW,228,2.0,7.0,43,0.03,,,0.22,508.000000,,2013-10-05 22:42:00,
2013-10-05 16:53:00,50.0,28.0,-100.00,SW,228,2.0,7.0,43,0.03,,,0.22,508.000000,,2013-10-05 22:53:00,
2013-10-05 17:02:00,50.0,28.0,-100.00,SW,228,2.0,7.0,43,0.03,,,0.22,508.000000,,2013-10-05 23:02:00,
2013-10-05 17:43:00,42.0,27.0,-100.00,ESE,113,1.0,7.0,55,0.02,,,0.20,177.000000,,2013-10-05 23:43:00,
2013-10-05 17:53:00,42.0,27.0,-100.00,ESE,113,1.0,7.0,55,0.02,,,0.20,177.000000,,2013-10-05 23:53:00,
2013-10-05 18:02:00,42.0,27.0,-100.00,ESE,113,1.0,7.0,55,0.02,,,0.20,177.000000,,2013-10-06 00:02:00,
2013-10-05 18:23:00,40.0,30.0,-100.00,SW,215,1.0,5.0,66,0.00,,,0.17,33.000000,,2013-10-06 00:23:00,
2013-10-05 18:32:00,40.0,30.0,-100.00,SW,215,1.0,5.0,66,0.00,,,0.17,33.000000,,2013-10-06 00:32:00,
2013-10-05 18:43:00,40.0,30.0,-100.00,SW,215,1.0,5.0,66,0.00,,,0.17,33.000000,,2013-10-06 00:43:00,
2013-10-05 18:52:00,40.0,30.0,-100.00,SW,215,1.0,5.0,66,0.00,,,0.17,33.000000,,2013-10-06 00:52:00,
2013-10-05 19:01:00,40.0,30.0,-100.00,SW,215,1.0,5.0,66,0.00,,,0.17,33.000000,,2013-10-06 01:01:00,
2013-10-05 19:42:00,32.0,27.0,-100.00,SSE,154,0.0,4.0,83,0.01,,,0.18,10.000000,,2013-10-06 01:42:00,
2013-10-05 19:52:00,32.0,27.0,-100.00,SSE,154,0.0,4.0,83,0.01,,,0.18,10.000000,,2013-10-06 01:52:00,
2013-10-05 20:02:00,32.0,27.0,-100.00,SSE,154,0.0,4.0,83,0.01,,,0.18,10.000000,,2013-10-06 02:02:00,
2013-10-05 20:42:00,32.0,29.0,-100.00,SE,135,1.0,3.0,89,0.00,,,0.18,0.000000,,2013-10-06 02:42:00,
2013-10-05 20:52:00,32.0,29.0,-100.00,SE,135,1.0,3.0,89,0.00,,,0.18,0.000000,,2013-10-06 02:52:00,
2013-10-05 21:02:00,32.0,29.0,-100.00,SE,135,1.0,3.0,89,0.00,,,0.18,0.000000,,2013-10-06 03:02:00,
2013-10-05 21:22:00,32.0,29.0,-100.00,SSE,167,1.0,6.0,87,0.00,,,0.18,0.000000,,2013-10-06 03:22:00,
2013-10-05 21:34:00,32.0,29.0,-100.00,SSE,167,1.0,6.0,87,0.00,,,0.18,0.000000,,2013-10-06 03:34:00,
2013-10-05 21:44:00,32.0,29.0,-100.00,SSE,167,1.0,6.0,87,0.00,,,0.18,0.000000,,2013-10-06 03:44:00,
2013-10-05 21:54:00,32.0,29.0,-100.00,SSE,167,1.0,6.0,87,0.00,,,0.18,0.000000,,2013-10-06 03:54:00,
2013-10-05 22:03:00,34.0,27.0,-100.00,South,184,2.0,10.0,74,0.00,,,0.18,0.000000,,2013-10-06 04:03:00,
2013-10-05 22:44:00,34.0,27.0,-100.00,South,184,2.0,10.0,74,0.00,,,0.18,0.000000,,2013-10-06 04:44:00,
2013-10-05 22:54:00,34.0,27.0,-100.00,South,184,2.0,10.0,74,0.00,,,0.18,0.000000,,2013-10-06 04:54:00,
2013-10-05 23:23:00,34.0,26.0,-100.00,North,7,2.0,7.0,73,0.00,,,0.18,0.000000,,2013-10-06 05:23:00,
2013-10-05 23:34:00,34.0,26.0,-100.00,North,7,2.0,7.0,73,0.00,,,0.18,0.000000,,2013-10-06 05:34:00,
2013-10-05 23:43:00,34.0,26.0,-100.00,North,7,2.0,7.0,73,0.00,,,0.18,0.000000,,2013-10-06 05:43:00,
2013-10-05 23:52:00,34.0,26.0,-100.00,North,7,2.0,7.0,73,0.00,,,0.18,0.000000,,2013-10-06 05:52:00,